{"data":{"norad_id":67401,"epoch":"2026-05-24T22:39:14.800320Z","epoch_age_seconds":73693,"freshness":"FRESH","line1":"1 67401U 26004AQ  26144.94392130  .00002823  00000+0  14051-3 0  9996","line2":"2 67401  97.4508 144.3141 0011431  66.1248 294.1183 15.18360947 20237","mean_motion":15.18360947,"eccentricity":0.0011431,"inclination_deg":97.4508,"raan_deg":144.3141,"arg_perigee_deg":66.1248,"mean_anomaly_deg":294.1183,"bstar":0.00014051,"rev_number":2023,"period_min":94.83910942554,"perigee_km":502.91910190721,"apogee_km":518.66857559075,"semimajor_km":6888.930838749,"source":"CELESTRAK","updated_at":"2026-05-25T13:38:06.962625Z"}}